Time,TemperatureF,DewpointF,PressureIn,WindDirection,WindDirectionDegrees,WindSpeedMPH,WindSpeedGustMPH,Humidity,HourlyPrecipIn,Conditions,Clouds,dailyrainin,SoftwareType,DateUTC
2013-08-26 00:00:00,80.7,71.6,30.04,SW,232,7.0,10.0,74,0.00,,,0.00,Wunderground v.1.15,2013-08-26 05:00:00,
2013-08-26 00:06:00,80.7,72.0,30.04,SW,221,10.0,13.0,74,0.00,,,0.00,weatherlink.com 1.10,2013-08-26 05:06:00,
2013-08-26 00:12:00,80.9,71.4,30.04,SW,216,8.0,11.0,73,0.00,,,0.00,Wunderground v.1.15,2013-08-26 05:12:00,
2013-08-26 00:17:00,81.0,71.5,30.04,SSW,207,8.0,12.0,73,0.00,,,0.00,Wunderground v.1.15,2013-08-26 05:17:00,
2013-08-26 00:23:00,81.0,71.1,30.04,SW,221,7.0,9.0,72,0.00,,,0.00,Wunderground v.1.15,2013-08-26 05:23:00,
2013-08-26 00:29:00,80.8,70.9,30.04,SSW,200,7.0,9.0,72,0.00,,,0.00,Wunderground v.1.15,2013-08-26 05:29:00,
2013-08-26 00:35:00,80.7,70.8,30.04,South,177,7.0,13.0,72,0.00,,,0.00,Wunderground v.1.15,2013-08-26 05:35:00,
2013-08-26 00:41:00,80.7,70.8,30.04,SW,235,8.0,13.0,72,0.00,,,0.00,Wunderground v.1.15,2013-08-26 05:41:00,
2013-08-26 00:47:00,80.7,70.8,30.04,SW,227,8.0,13.0,72,0.00,,,0.00,Wunderground v.1.15,2013-08-26 05:47:00,
2013-08-26 00:52:00,80.7,70.8,30.04,SW,216,8.0,13.0,72,0.00,,,0.00,Wunderground v.1.15,2013-08-26 05:52:00,
2013-08-26 00:57:00,80.6,70.7,30.04,SW,224,8.0,15.0,72,0.00,,,0.00,Wunderground v.1.15,2013-08-26 05:57:00,
2013-08-26 01:03:00,80.5,70.6,30.04,SW,214,8.0,11.0,72,0.00,,,0.00,Wunderground v.1.15,2013-08-26 06:03:00,
2013-08-26 01:09:00,80.3,70.4,30.04,SW,228,7.0,11.0,72,0.00,,,0.00,Wunderground v.1.15,2013-08-26 06:09:00,
2013-08-26 01:15:00,80.3,70.4,30.04,SW,227,8.0,12.0,72,0.00,,,0.00,Wunderground v.1.15,2013-08-26 06:15:00,
2013-08-26 01:20:00,80.2,70.8,30.04,SW,218,8.0,8.0,73,0.00,,,0.00,Wunderground v.1.15,2013-08-26 06:20:00,
2013-08-26 01:26:00,79.9,70.5,30.04,SSW,213,7.0,8.0,73,0.00,,,0.00,Wunderground v.1.15,2013-08-26 06:26:00,
2013-08-26 01:31:00,79.7,70.7,30.04,SSW,202,7.0,10.0,74,0.00,,,0.00,Wunderground v.1.15,2013-08-26 06:31:00,
2013-08-26 01:36:00,79.5,70.5,30.04,SW,221,7.0,11.0,74,0.00,,,0.00,Wunderground v.1.15,2013-08-26 06:36:00,
2013-08-26 01:42:00,79.3,70.3,30.04,SSW,199,8.0,8.0,74,0.00,,,0.00,Wunderground v.1.15,2013-08-26 06:42:00,
2013-08-26 01:48:00,79.2,70.2,30.04,SW,230,7.0,8.0,74,0.00,,,0.00,Wunderground v.1.15,2013-08-26 06:48:00,
2013-08-26 01:54:00,78.9,70.3,30.04,SSW,213,7.0,10.0,75,0.00,,,0.00,Wunderground v.1.15,2013-08-26 06:54:00,
2013-08-26 02:00:00,78.8,70.2,30.04,SW,224,8.0,8.0,75,0.00,,,0.00,Wunderground v.1.15,2013-08-26 07:00:00,
2013-08-26 02:06:00,78.7,70.1,30.04,SW,232,7.0,9.0,75,0.00,,,0.00,Wunderground v.1.15,2013-08-26 07:06:00,
2013-08-26 02:12:00,78.7,70.1,30.03,SSW,206,7.0,11.0,75,0.00,,,0.00,Wunderground v.1.15,2013-08-26 07:12:00,
2013-08-26 02:17:00,78.7,70.1,30.03,SSW,213,7.0,11.0,75,0.00,,,0.00,Wunderground v.1.15,2013-08-26 07:17:00,
2013-08-26 02:22:00,78.6,70.0,30.03,SW,232,7.0,9.0,75,0.00,,,0.00,Wunderground v.1.15,2013-08-26 07:22:00,
2013-08-26 02:27:00,78.5,70.3,30.03,SW,225,7.0,9.0,76,0.00,,,0.00,Wunderground v.1.15,2013-08-26 07:27:00,
2013-08-26 02:33:00,78.2,70.0,30.04,SW,226,6.0,8.0,76,0.00,,,0.00,Wunderground v.1.15,2013-08-26 07:33:00,
2013-08-26 02:39:00,78.1,69.9,30.03,SSW,207,6.0,8.0,76,0.00,,,0.00,Wunderground v.1.15,2013-08-26 07:39:00,
2013-08-26 02:45:00,78.0,69.8,30.03,WSW,237,6.0,6.0,76,0.00,,,0.00,Wunderground v.1.15,2013-08-26 07:45:00,
2013-08-26 02:51:00,77.9,69.7,30.04,SW,232,6.0,7.0,76,0.00,,,0.00,Wunderground v.1.15,2013-08-26 07:51:00,
2013-08-26 02:57:00,77.8,70.0,30.03,WSW,246,6.0,8.0,77,0.00,,,0.00,Wunderground v.1.15,2013-08-26 07:57:00,
2013-08-26 03:03:00,77.8,70.0,30.03,SW,221,7.0,9.0,77,0.00,,,0.00,Wunderground v.1.15,2013-08-26 08:03:00,
2013-08-26 03:08:00,77.7,70.0,30.03,WSW,237,11.0,11.0,77,0.00,,,0.00,weatherlink.com 1.10,2013-08-26 08:08:00,
2013-08-26 03:13:00,77.7,69.9,30.03,WSW,248,7.0,10.0,77,0.00,,,0.00,Wunderground v.1.15,2013-08-26 08:13:00,
2013-08-26 03:19:00,77.7,69.9,30.03,SW,232,8.0,10.0,77,0.00,,,0.00,Wunderground v.1.15,2013-08-26 08:19:00,
2013-08-26 03:24:00,77.7,69.9,30.03,SSW,207,8.0,10.0,77,0.00,,,0.00,Wunderground v.1.15,2013-08-26 08:24:00,
2013-08-26 03:29:00,77.7,69.9,30.03,SW,232,8.0,10.0,77,0.00,,,0.00,Wunderground v.1.15,2013-08-26 08:29:00,
2013-08-26 03:35:00,77.7,69.9,30.03,SW,220,8.0,12.0,77,0.00,,,0.00,Wunderground v.1.15,2013-08-26 08:35:00,
2013-08-26 03:41:00,77.6,69.8,30.03,SSW,211,8.0,12.0,77,0.00,,,0.00,Wunderground v.1.15,2013-08-26 08:41:00,
2013-08-26 03:48:00,77.5,69.7,30.03,SW,225,8.0,12.0,77,0.00,,,0.00,Wunderground v.1.15,2013-08-26 08:48:00,
2013-08-26 03:54:00,77.3,69.5,30.03,WSW,244,7.0,12.0,77,0.00,,,0.00,Wunderground v.1.15,2013-08-26 08:54:00,
2013-08-26 04:00:00,77.2,69.8,30.03,SW,234,7.0,10.0,78,0.00,,,0.00,Wunderground v.1.15,2013-08-26 09:00:00,
2013-08-26 04:06:00,77.1,69.7,30.03,SW,226,7.0,10.0,78,0.00,,,0.00,Wunderground v.1.15,2013-08-26 09:06:00,
2013-08-26 04:12:00,77.1,69.7,30.03,WSW,246,8.0,8.0,78,0.00,,,0.00,Wunderground v.1.15,2013-08-26 09:12:00,
2013-08-26 04:18:00,77.0,69.6,30.03,SW,233,7.0,11.0,78,0.00,,,0.00,Wunderground v.1.15,2013-08-26 09:18:00,
2013-08-26 04:23:00,77.0,69.6,30.03,SW,229,7.0,11.0,78,0.00,,,0.00,Wunderground v.1.15,2013-08-26 09:23:00,
2013-08-26 04:29:00,76.9,69.5,30.03,SW,220,7.0,12.0,78,0.00,,,0.00,Wunderground v.1.15,2013-08-26 09:29:00,
2013-08-26 04:34:00,77.0,69.6,30.03,WSW,244,8.0,8.0,78,0.00,,,0.00,Wunderground v.1.15,2013-08-26 09:34:00,
2013-08-26 04:40:00,76.9,70.0,30.03,SW,233,5.0,11.0,78,0.00,,,0.00,weatherlink.com 1.10,2013-08-26 09:40:00,
2013-08-26 04:45:00,76.9,69.5,30.03,SW,236,7.0,8.0,78,0.00,,,0.00,Wunderground v.1.15,2013-08-26 09:45:00,
2013-08-26 04:51:00,76.8,69.4,30.03,WSW,243,6.0,7.0,78,0.00,,,0.00,Wunderground v.1.15,2013-08-26 09:51:00,
2013-08-26 04:57:00,76.6,69.6,30.03,SW,233,6.0,7.0,79,0.00,,,0.00,Wunderground v.1.15,2013-08-26 09:57:00,
2013-08-26 05:02:00,76.5,69.5,30.03,SW,219,5.0,13.0,79,0.00,,,0.00,Wunderground v.1.15,2013-08-26 10:02:00,
2013-08-26 05:07:00,76.4,69.4,30.03,WSW,238,5.0,13.0,79,0.00,,,0.00,Wunderground v.1.15,2013-08-26 10:07:00,
2013-08-26 05:13:00,76.3,69.7,30.03,SW,232,5.0,13.0,80,0.00,,,0.00,Wunderground v.1.15,2013-08-26 10:13:00,
2013-08-26 05:18:00,76.2,69.6,30.03,SW,223,5.0,13.0,80,0.00,,,0.00,Wunderground v.1.15,2013-08-26 10:18:00,
2013-08-26 05:24:00,76.1,69.5,30.04,SSW,209,4.0,13.0,80,0.00,,,0.00,Wunderground v.1.15,2013-08-26 10:24:00,
2013-08-26 05:29:00,76.0,69.4,30.04,SW,215,4.0,13.0,80,0.00,,,0.00,Wunderground v.1.15,2013-08-26 10:29:00,
2013-08-26 05:35:00,75.8,69.2,30.04,SW,217,3.0,13.0,80,0.00,,,0.00,Wunderground v.1.15,2013-08-26 10:35:00,
2013-08-26 05:41:00,75.7,70.0,30.04,SW,221,4.0,8.0,81,0.00,,,0.00,weatherlink.com 1.10,2013-08-26 10:41:00,
2013-08-26 05:46:00,75.7,69.5,30.04,SW,224,4.0,13.0,81,0.00,,,0.00,Wunderground v.1.15,2013-08-26 10:46:00,
2013-08-26 05:52:00,75.5,69.3,30.04,SW,225,4.0,13.0,81,0.00,,,0.00,Wunderground v.1.15,2013-08-26 10:52:00,
2013-08-26 05:58:00,75.3,69.4,30.03,SW,215,4.0,13.0,82,0.00,,,0.00,Wunderground v.1.15,2013-08-26 10:58:00,
2013-08-26 06:03:00,75.2,69.3,30.03,SW,221,4.0,5.0,82,0.00,,,0.00,Wunderground v.1.15,2013-08-26 11:03:00,
2013-08-26 06:09:00,75.1,69.2,30.04,SW,225,3.0,5.0,82,0.00,,,0.00,Wunderground v.1.15,2013-08-26 11:09:00,
2013-08-26 06:15:00,75.0,69.1,30.04,SW,225,4.0,6.0,82,0.00,,,0.00,Wunderground v.1.15,2013-08-26 11:15:00,
2013-08-26 06:21:00,75.0,69.1,30.04,SW,223,4.0,4.0,82,0.00,,,0.00,Wunderground v.1.15,2013-08-26 11:21:00,
2013-08-26 06:26:00,74.9,69.0,30.04,SW,216,4.0,5.0,82,0.00,,,0.00,Wunderground v.1.15,2013-08-26 11:26:00,
2013-08-26 06:31:00,74.8,69.3,30.04,SW,216,3.0,4.0,83,0.00,,,0.00,Wunderground v.1.15,2013-08-26 11:31:00,
2013-08-26 06:37:00,74.7,69.2,30.04,SSW,212,3.0,4.0,83,0.00,,,0.00,Wunderground v.1.15,2013-08-26 11:37:00,
2013-08-26 06:43:00,74.6,69.1,30.04,SSW,210,3.0,5.0,83,0.00,,,0.00,Wunderground v.1.15,2013-08-26 11:43:00,
2013-08-26 06:48:00,74.5,69.0,30.04,SW,219,4.0,6.0,83,0.00,,,0.00,Wunderground v.1.15,2013-08-26 11:48:00,
2013-08-26 06:54:00,74.4,68.9,30.04,SW,216,3.0,5.0,83,0.00,,,0.00,Wunderground v.1.15,2013-08-26 11:54:00,
2013-08-26 06:59:00,74.3,69.1,30.04,SSW,213,3.0,5.0,84,0.00,,,0.00,Wunderground v.1.15,2013-08-26 11:59:00,
2013-08-26 07:05:00,74.2,69.1,30.04,SSW,213,3.0,8.0,84,0.00,,,0.00,Wunderground v.1.15,2013-08-26 12:05:00,
2013-08-26 07:11:00,74.2,69.1,30.04,SW,218,3.0,8.0,84,0.00,,,0.00,Wunderground v.1.15,2013-08-26 12:11:00,
2013-08-26 07:16:00,74.3,69.1,30.04,SW,221,4.0,8.0,84,0.00,,,0.00,Wunderground v.1.15,2013-08-26 12:16:00,
2013-08-26 07:22:00,74.5,69.3,30.05,SW,222,3.0,8.0,84,0.00,,,0.00,Wunderground v.1.15,2013-08-26 12:22:00,
2013-08-26 07:28:00,74.7,69.5,30.05,SW,218,4.0,8.0,84,0.00,,,0.00,Wunderground v.1.15,2013-08-26 12:28:00,
2013-08-26 07:34:00,75.1,69.6,30.05,SSW,208,4.0,8.0,83,0.00,,,0.00,Wunderground v.1.15,2013-08-26 12:34:00,
2013-08-26 07:40:00,75.4,69.9,30.05,SSW,205,4.0,4.0,83,0.00,,,0.00,Wunderground v.1.15,2013-08-26 12:40:00,
2013-08-26 07:45:00,75.7,70.2,30.05,SW,225,4.0,8.0,83,0.00,,,0.00,Wunderground v.1.15,2013-08-26 12:45:00,
2013-08-26 07:50:00,75.9,70.0,30.04,SSW,205,4.0,8.0,82,0.00,,,0.00,Wunderground v.1.15,2013-08-26 12:50:00,
2013-08-26 07:55:00,76.2,70.3,30.04,SW,217,4.0,8.0,82,0.00,,,0.00,Wunderground v.1.15,2013-08-26 12:55:00,
2013-08-26 08:00:00,76.6,70.3,30.04,SW,223,4.0,4.0,81,0.00,,,0.00,Wunderground v.1.15,2013-08-26 13:00:00,
2013-08-26 08:06:00,76.9,70.6,30.04,SW,233,5.0,7.0,81,0.00,,,0.00,Wunderground v.1.15,2013-08-26 13:06:00,
2013-08-26 08:12:00,77.3,70.6,30.04,SW,217,6.0,7.0,80,0.00,,,0.00,Wunderground v.1.15,2013-08-26 13:12:00,
2013-08-26 08:18:00,77.6,70.6,30.04,WSW,242,6.0,7.0,79,0.00,,,0.00,Wunderground v.1.15,2013-08-26 13:18:00,
2013-08-26 08:23:00,77.9,70.9,30.04,SW,227,6.0,9.0,79,0.00,,,0.00,Wunderground v.1.15,2013-08-26 13:23:00,
2013-08-26 08:29:00,78.3,70.9,30.04,SW,221,7.0,9.0,78,0.00,,,0.00,Wunderground v.1.15,2013-08-26 13:29:00,
2013-08-26 08:35:00,78.5,71.1,30.03,SW,219,8.0,10.0,78,0.00,,,0.00,Wunderground v.1.15,2013-08-26 13:35:00,
2013-08-26 08:41:00,78.7,70.9,30.03,SW,231,8.0,8.0,77,0.00,,,0.00,Wunderground v.1.15,2013-08-26 13:41:00,
2013-08-26 08:47:00,79.0,71.2,30.03,WSW,238,8.0,9.0,77,0.00,,,0.00,Wunderground v.1.15,2013-08-26 13:47:00,
2013-08-26 08:52:00,79.3,71.5,30.03,SW,231,8.0,13.0,77,0.00,,,0.00,Wunderground v.1.15,2013-08-26 13:52:00,
2013-08-26 08:58:00,79.5,71.7,30.03,SW,224,8.0,13.0,77,0.00,,,0.00,Wunderground v.1.15,2013-08-26 13:58:00,
2013-08-26 09:04:00,79.9,71.7,30.03,SW,234,8.0,12.0,76,0.00,,,0.00,Wunderground v.1.15,2013-08-26 14:04:00,
2013-08-26 09:09:00,80.1,71.5,30.03,SW,229,9.0,12.0,75,0.00,,,0.00,Wunderground v.1.15,2013-08-26 14:09:00,
2013-08-26 09:15:00,80.6,72.3,30.02,SW,227,8.0,10.0,76,0.00,,,0.00,Wunderground v.1.15,2013-08-26 14:15:00,
2013-08-26 09:21:00,81.0,71.9,30.02,SW,235,7.0,8.0,74,0.00,,,0.00,Wunderground v.1.15,2013-08-26 14:21:00,
2013-08-26 09:26:00,81.2,72.1,30.02,SW,229,8.0,11.0,74,0.00,,,0.00,Wunderground v.1.15,2013-08-26 14:26:00,
2013-08-26 09:32:00,81.5,72.4,30.02,WSW,246,9.0,9.0,74,0.00,,,0.00,Wunderground v.1.15,2013-08-26 14:32:00,
2013-08-26 09:38:00,81.8,72.7,30.02,SW,224,9.0,9.0,74,0.00,,,0.00,Wunderground v.1.15,2013-08-26 14:38:00,
2013-08-26 09:43:00,82.3,72.8,30.02,SW,234,9.0,10.0,73,0.00,,,0.00,Wunderground v.1.15,2013-08-26 14:43:00,
2013-08-26 09:50:00,82.6,72.7,30.02,West,261,9.0,9.0,72,0.00,,,0.00,Wunderground v.1.15,2013-08-26 14:50:00,
2013-08-26 09:56:00,83.2,72.8,30.02,SW,228,9.0,10.0,71,0.00,,,0.00,Wunderground v.1.15,2013-08-26 14:56:00,
2013-08-26 10:02:00,83.5,72.7,30.02,West,260,9.0,11.0,70,0.00,,,0.00,Wunderground v.1.15,2013-08-26 15:02:00,
2013-08-26 10:07:00,83.8,73.0,30.02,SSW,210,10.0,11.0,70,0.00,,,0.00,Wunderground v.1.15,2013-08-26 15:07:00,
2013-08-26 10:13:00,84.2,72.9,30.02,WSW,247,9.0,13.0,69,0.00,,,0.00,Wunderground v.1.15,2013-08-26 15:13:00,
2013-08-26 10:19:00,84.5,73.2,30.02,WSW,241,9.0,13.0,69,0.00,,,0.00,Wunderground v.1.15,2013-08-26 15:19:00,
2013-08-26 10:25:00,84.8,72.2,30.02,WSW,244,9.0,13.0,66,0.00,,,0.00,Wunderground v.1.15,2013-08-26 15:25:00,
2013-08-26 10:31:00,84.9,72.7,30.01,WSW,249,10.0,12.0,67,0.00,,,0.00,Wunderground v.1.15,2013-08-26 15:31:00,
2013-08-26 10:36:00,85.0,72.8,30.02,SSW,213,10.0,13.0,67,0.00,,,0.00,Wunderground v.1.15,2013-08-26 15:36:00,
2013-08-26 10:42:00,85.2,72.6,30.02,WSW,240,11.0,14.0,66,0.00,,,0.00,Wunderground v.1.15,2013-08-26 15:42:00,
2013-08-26 10:47:00,85.4,72.7,30.02,SW,230,11.0,14.0,66,0.00,,,0.00,Wunderground v.1.15,2013-08-26 15:47:00,
2013-08-26 10:53:00,85.8,73.6,30.02,SW,227,9.0,10.0,67,0.00,,,0.00,Wunderground v.1.15,2013-08-26 15:53:00,
2013-08-26 10:59:00,86.1,73.0,30.02,WSW,243,8.0,12.0,65,0.00,,,0.00,Wunderground v.1.15,2013-08-26 15:59:00,
2013-08-26 11:06:00,86.0,72.9,30.02,WSW,250,10.0,16.0,65,0.00,,,0.00,Wunderground v.1.15,2013-08-26 16:06:00,
2013-08-26 11:11:00,86.2,72.6,30.02,SW,229,10.0,13.0,64,0.00,,,0.00,Wunderground v.1.15,2013-08-26 16:11:00,
2013-08-26 11:16:00,86.5,73.3,30.01,SSW,211,10.0,13.0,65,0.00,,,0.00,Wunderground v.1.15,2013-08-26 16:16:00,
2013-08-26 11:22:00,87.0,72.9,30.01,WSW,248,9.0,11.0,63,0.00,,,0.00,Wunderground v.1.15,2013-08-26 16:22:00,
2013-08-26 11:27:00,87.3,74.1,30.01,SW,236,8.0,11.0,65,0.00,,,0.00,Wunderground v.1.15,2013-08-26 16:27:00,
2013-08-26 11:33:00,87.9,73.7,30.01,SW,234,7.0,8.0,63,0.00,,,0.00,Wunderground v.1.15,2013-08-26 16:33:00,
2013-08-26 11:39:00,87.9,73.7,30.02,SW,228,9.0,10.0,63,0.00,,,0.00,Wunderground v.1.15,2013-08-26 16:39:00,
2013-08-26 11:45:00,87.7,73.5,30.01,SW,226,9.0,11.0,63,0.00,,,0.00,Wunderground v.1.15,2013-08-26 16:45:00,
2013-08-26 11:50:00,88.0,73.8,30.01,SW,216,9.0,9.0,63,0.00,,,0.00,Wunderground v.1.15,2013-08-26 16:50:00,
2013-08-26 11:56:00,88.0,73.3,30.01,SW,236,9.0,14.0,62,0.00,,,0.00,Wunderground v.1.15,2013-08-26 16:56:00,
2013-08-26 12:02:00,88.2,73.0,30.01,SSW,209,9.0,9.0,61,0.00,,,0.00,Wunderground v.1.15,2013-08-26 17:02:00,
2013-08-26 12:07:00,88.3,73.1,30.01,SW,232,9.0,13.0,61,0.00,,,0.00,Wunderground v.1.15,2013-08-26 17:07:00,
2013-08-26 12:12:00,88.4,73.7,30.01,WSW,242,9.0,10.0,62,0.00,,,0.00,Wunderground v.1.15,2013-08-26 17:12:00,
2013-08-26 12:17:00,88.8,74.1,30.00,WSW,244,8.0,10.0,62,0.00,,,0.00,Wunderground v.1.15,2013-08-26 17:17:00,
2013-08-26 12:23:00,89.2,74.5,30.00,SSW,206,8.0,11.0,62,0.00,,,0.00,Wunderground v.1.15,2013-08-26 17:23:00,
2013-08-26 12:28:00,89.3,74.1,30.00,SW,229,9.0,11.0,61,0.00,,,0.00,Wunderground v.1.15,2013-08-26 17:28:00,
2013-08-26 12:33:00,89.4,74.2,30.00,SW,225,9.0,17.0,61,0.00,,,0.00,Wunderground v.1.15,2013-08-26 17:33:00,
2013-08-26 12:39:00,89.6,74.4,30.00,SW,230,9.0,17.0,61,0.00,,,0.00,Wunderground v.1.15,2013-08-26 17:39:00,
2013-08-26 12:45:00,90.3,74.5,29.99,SW,220,8.0,17.0,60,0.00,,,0.00,Wunderground v.1.15,2013-08-26 17:45:00,
2013-08-26 12:50:00,90.6,74.8,29.99,WSW,240,8.0,8.0,60,0.00,,,0.00,Wunderground v.1.15,2013-08-26 17:50:00,
2013-08-26 12:56:00,91.0,76.2,29.99,SSW,208,8.0,17.0,62,0.00,,,0.00,Wunderground v.1.15,2013-08-26 17:56:00,
2013-08-26 13:02:00,91.3,75.0,29.99,SW,228,8.0,12.0,59,0.00,,,0.00,Wunderground v.1.15,2013-08-26 18:02:00,
2013-08-26 13:07:00,91.6,75.2,29.99,SW,215,8.0,13.0,59,0.00,,,0.00,Wunderground v.1.15,2013-08-26 18:07:00,
2013-08-26 13:12:00,91.5,75.1,29.99,SSW,203,8.0,9.0,59,0.00,,,0.00,Wunderground v.1.15,2013-08-26 18:12:00,
2013-08-26 13:17:00,91.5,74.6,29.98,SW,223,10.0,15.0,58,0.00,,,0.00,Wunderground v.1.15,2013-08-26 18:17:00,
2013-08-26 13:23:00,92.2,75.8,29.98,SW,221,9.0,15.0,59,0.00,,,0.00,Wunderground v.1.15,2013-08-26 18:23:00,
2013-08-26 13:29:00,92.4,74.4,29.98,SW,227,9.0,15.0,56,0.00,,,0.00,Wunderground v.1.15,2013-08-26 18:29:00,
2013-08-26 13:35:00,92.7,75.2,29.98,SW,228,9.0,9.0,57,0.00,,,0.00,Wunderground v.1.15,2013-08-26 18:35:00,
2013-08-26 13:41:00,92.8,74.8,29.98,WSW,245,8.0,10.0,56,0.00,,,0.00,Wunderground v.1.15,2013-08-26 18:41:00,
2013-08-26 13:47:00,93.0,74.4,29.97,SW,225,8.0,10.0,55,0.00,,,0.00,Wunderground v.1.15,2013-08-26 18:47:00,
2013-08-26 13:53:00,93.3,75.8,29.97,WSW,247,9.0,15.0,57,0.00,,,0.00,Wunderground v.1.15,2013-08-26 18:53:00,
2013-08-26 13:59:00,93.2,74.1,29.97,WSW,240,10.0,15.0,54,0.00,,,0.00,Wunderground v.1.15,2013-08-26 18:59:00,
2013-08-26 14:05:00,93.1,73.4,29.97,WSW,243,10.0,14.0,53,0.00,,,0.00,Wunderground v.1.15,2013-08-26 19:05:00,
2013-08-26 14:11:00,93.3,75.0,29.97,SW,226,7.0,15.0,55,0.00,,,0.00,weatherlink.com 1.10,2013-08-26 19:11:00,
2013-08-26 14:16:00,93.4,75.4,29.97,SSW,207,9.0,15.0,56,0.00,,,0.00,Wunderground v.1.15,2013-08-26 19:16:00,
2013-08-26 14:21:00,93.5,74.4,29.97,West,260,9.0,9.0,54,0.00,,,0.00,Wunderground v.1.15,2013-08-26 19:21:00,
2013-08-26 14:26:00,93.8,75.2,29.96,SSW,211,9.0,15.0,55,0.00,,,0.00,Wunderground v.1.15,2013-08-26 19:26:00,
2013-08-26 14:32:00,93.7,75.1,29.96,SW,226,10.0,18.0,55,0.00,,,0.00,Wunderground v.1.15,2013-08-26 19:32:00,
2013-08-26 14:38:00,93.9,75.3,29.96,West,260,9.0,18.0,55,0.00,,,0.00,Wunderground v.1.15,2013-08-26 19:38:00,
2013-08-26 14:44:00,94.1,74.9,29.96,WSW,246,10.0,18.0,54,0.00,,,0.00,Wunderground v.1.15,2013-08-26 19:44:00,
2013-08-26 14:49:00,94.3,75.6,29.96,WSW,247,10.0,18.0,55,0.00,,,0.00,Wunderground v.1.15,2013-08-26 19:49:00,
2013-08-26 14:54:00,94.5,74.7,29.96,South,177,10.0,18.0,53,0.00,,,0.00,Wunderground v.1.15,2013-08-26 19:54:00,
2013-08-26 15:00:00,94.8,75.6,29.96,SW,223,9.0,9.0,54,0.00,,,0.00,Wunderground v.1.15,2013-08-26 20:00:00,
2013-08-26 15:06:00,94.4,75.2,29.96,WSW,244,9.0,11.0,54,0.00,,,0.00,Wunderground v.1.15,2013-08-26 20:06:00,
2013-08-26 15:12:00,93.6,75.0,29.96,SW,219,9.0,9.0,55,0.00,,,0.00,Wunderground v.1.15,2013-08-26 20:12:00,
2013-08-26 15:18:00,92.7,73.6,29.95,WSW,252,10.0,15.0,54,0.00,,,0.00,Wunderground v.1.15,2013-08-26 20:18:00,
2013-08-26 15:23:00,92.1,74.7,29.95,SW,222,11.0,11.0,57,0.00,,,0.00,Wunderground v.1.15,2013-08-26 20:23:00,
2013-08-26 15:29:00,91.8,73.9,29.95,WSW,240,8.0,11.0,56,0.00,,,0.00,Wunderground v.1.15,2013-08-26 20:29:00,
2013-08-26 15:35:00,91.4,73.5,29.95,SW,220,8.0,13.0,56,0.00,,,0.00,Wunderground v.1.15,2013-08-26 20:35:00,
2013-08-26 15:41:00,91.6,75.0,29.95,SW,236,8.0,15.0,59,0.00,,,0.00,weatherlink.com 1.10,2013-08-26 20:41:00,
2013-08-26 15:46:00,91.8,74.4,29.95,SSW,204,7.0,11.0,57,0.00,,,0.00,Wunderground v.1.15,2013-08-26 20:46:00,
2013-08-26 15:51:00,91.8,74.4,29.95,SSW,213,9.0,10.0,57,0.00,,,0.00,Wunderground v.1.15,2013-08-26 20:51:00,
2013-08-26 15:56:00,92.1,75.0,29.95,SW,216,6.0,16.0,58,0.00,,,0.00,weatherlink.com 1.10,2013-08-26 20:56:00,
2013-08-26 16:02:00,93.1,75.1,29.94,SSW,193,6.0,12.0,56,0.00,,,0.00,Wunderground v.1.15,2013-08-26 21:02:00,
2013-08-26 16:08:00,93.6,75.0,29.94,SW,216,8.0,12.0,55,0.00,,,0.00,Wunderground v.1.15,2013-08-26 21:08:00,
2013-08-26 16:14:00,94.2,76.1,29.94,South,184,9.0,11.0,56,0.00,,,0.00,Wunderground v.1.15,2013-08-26 21:14:00,
2013-08-26 16:20:00,94.4,74.6,29.94,SW,236,9.0,12.0,53,0.00,,,0.00,Wunderground v.1.15,2013-08-26 21:20:00,
2013-08-26 16:26:00,94.2,75.0,29.94,WSW,253,11.0,18.0,53,0.00,,,0.00,weatherlink.com 1.10,2013-08-26 21:26:00,
2013-08-26 16:31:00,94.2,74.4,29.94,SW,233,12.0,12.0,53,0.00,,,0.00,Wunderground v.1.15,2013-08-26 21:31:00,
2013-08-26 16:36:00,94.4,74.6,29.93,SW,227,10.0,12.0,53,0.00,,,0.00,Wunderground v.1.15,2013-08-26 21:36:00,
2013-08-26 16:42:00,94.6,75.4,29.93,SSW,207,9.0,12.0,54,0.00,,,0.00,Wunderground v.1.15,2013-08-26 21:42:00,
2013-08-26 16:48:00,94.7,74.3,29.94,SW,235,9.0,17.0,52,0.00,,,0.00,Wunderground v.1.15,2013-08-26 21:48:00,
2013-08-26 16:53:00,94.5,74.7,29.93,SW,230,10.0,14.0,53,0.00,,,0.00,Wunderground v.1.15,2013-08-26 21:53:00,
2013-08-26 16:58:00,94.4,74.6,29.93,SSW,209,10.0,14.0,53,0.00,,,0.00,Wunderground v.1.15,2013-08-26 21:58:00,
2013-08-26 17:04:00,94.2,75.0,29.93,SW,224,10.0,12.0,54,0.00,,,0.00,Wunderground v.1.15,2013-08-26 22:04:00,
2013-08-26 17:10:00,93.9,74.2,29.93,WSW,242,12.0,20.0,53,0.00,,,0.00,Wunderground v.1.15,2013-08-26 22:10:00,
2013-08-26 17:15:00,93.7,74.0,29.93,SW,217,12.0,20.0,53,0.00,,,0.00,Wunderground v.1.15,2013-08-26 22:15:00,
2013-08-26 17:21:00,93.6,73.3,29.93,SW,232,11.0,19.0,52,0.00,,,0.00,Wunderground v.1.15,2013-08-26 22:21:00,
2013-08-26 17:27:00,93.4,74.0,29.93,SW,218,16.0,23.0,53,0.00,,,0.00,weatherlink.com 1.10,2013-08-26 22:27:00,
2013-08-26 17:32:00,93.2,73.5,29.93,SW,221,12.0,12.0,53,0.00,,,0.00,Wunderground v.1.15,2013-08-26 22:32:00,
2013-08-26 17:37:00,93.2,73.0,29.93,WSW,239,11.0,14.0,52,0.00,,,0.00,Wunderground v.1.15,2013-08-26 22:37:00,
2013-08-26 17:43:00,93.1,74.0,29.93,SW,224,10.0,10.0,54,0.00,,,0.00,Wunderground v.1.15,2013-08-26 22:43:00,
2013-08-26 17:49:00,92.9,73.2,29.93,SW,221,10.0,12.0,53,0.00,,,0.00,Wunderground v.1.15,2013-08-26 22:49:00,
2013-08-26 17:54:00,92.7,73.1,29.93,SW,229,10.0,13.0,53,0.00,,,0.00,Wunderground v.1.15,2013-08-26 22:54:00,
2013-08-26 18:00:00,92.5,73.4,29.93,WSW,250,10.0,10.0,54,0.00,,,0.00,Wunderground v.1.15,2013-08-26 23:00:00,
2013-08-26 18:06:00,92.4,72.8,29.93,SW,226,10.0,16.0,53,0.00,,,0.00,Wunderground v.1.15,2013-08-26 23:06:00,
2013-08-26 18:12:00,92.2,73.2,29.93,SW,216,10.0,10.0,54,0.00,,,0.00,Wunderground v.1.15,2013-08-26 23:12:00,
2013-08-26 18:17:00,92.0,73.0,29.92,WSW,250,9.0,14.0,54,0.00,,,0.00,Wunderground v.1.15,2013-08-26 23:17:00,
2013-08-26 18:23:00,91.8,72.8,29.93,SW,223,10.0,10.0,54,0.00,,,0.00,Wunderground v.1.15,2013-08-26 23:23:00,
2013-08-26 18:28:00,91.7,72.7,29.93,SW,221,9.0,12.0,54,0.00,,,0.00,Wunderground v.1.15,2013-08-26 23:28:00,
2013-08-26 18:34:00,91.5,73.1,29.92,SW,219,9.0,13.0,55,0.00,,,0.00,Wunderground v.1.15,2013-08-26 23:34:00,
2013-08-26 18:40:00,91.3,72.9,29.92,SW,215,9.0,9.0,55,0.00,,,0.00,Wunderground v.1.15,2013-08-26 23:40:00,
2013-08-26 18:46:00,91.0,72.6,29.92,SSW,213,8.0,14.0,55,0.00,,,0.00,Wunderground v.1.15,2013-08-26 23:46:00,
2013-08-26 18:52:00,90.9,72.5,29.92,SSW,203,9.0,11.0,55,0.00,,,0.00,Wunderground v.1.15,2013-08-26 23:52:00,
2013-08-26 18:58:00,90.6,72.2,29.92,SSW,209,8.0,11.0,55,0.00,,,0.00,Wunderground v.1.15,2013-08-26 23:58:00,
2013-08-26 19:03:00,90.4,72.6,29.92,SSW,211,9.0,11.0,56,0.00,,,0.00,Wunderground v.1.15,2013-08-27 00:03:00,
2013-08-26 19:09:00,90.1,72.3,29.92,SSW,202,8.0,11.0,56,0.00,,,0.00,Wunderground v.1.15,2013-08-27 00:09:00,
2013-08-26 19:15:00,89.9,72.6,29.92,SW,219,7.0,11.0,57,0.00,,,0.00,Wunderground v.1.15,2013-08-27 00:15:00,
2013-08-26 19:21:00,89.5,72.3,29.92,SW,223,8.0,8.0,57,0.00,,,0.00,Wunderground v.1.15,2013-08-27 00:21:00,
2013-08-26 19:27:00,89.2,72.0,29.92,SW,214,3.0,11.0,58,0.00,,,0.00,weatherlink.com 1.10,2013-08-27 00:27:00,
2013-08-26 19:32:00,89.0,72.3,29.92,SSW,198,7.0,10.0,58,0.00,,,0.00,Wunderground v.1.15,2013-08-27 00:32:00,
2013-08-26 19:38:00,88.6,71.9,29.92,SW,223,7.0,10.0,58,0.00,,,0.00,Wunderground v.1.15,2013-08-27 00:38:00,
2013-08-26 19:44:00,88.4,71.7,29.92,SSW,205,7.0,10.0,58,0.00,,,0.00,Wunderground v.1.15,2013-08-27 00:44:00,
2013-08-26 19:49:00,88.1,71.5,29.92,SSW,202,7.0,10.0,58,0.00,,,0.00,Wunderground v.1.15,2013-08-27 00:49:00,
2013-08-26 19:54:00,87.8,71.7,29.92,SSW,204,6.0,8.0,59,0.00,,,0.00,Wunderground v.1.15,2013-08-27 00:54:00,
2013-08-26 20:00:00,87.3,71.7,29.92,SSW,205,5.0,5.0,60,0.00,,,0.00,Wunderground v.1.15,2013-08-27 01:00:00,
2013-08-26 20:06:00,86.9,71.3,29.92,SSW,205,5.0,7.0,60,0.00,,,0.00,Wunderground v.1.15,2013-08-27 01:06:00,
2013-08-26 20:12:00,86.6,72.0,29.92,SSW,208,6.0,10.0,61,0.00,,,0.00,weatherlink.com 1.10,2013-08-27 01:12:00,
2013-08-26 20:17:00,86.5,71.9,29.91,South,183,6.0,8.0,62,0.00,,,0.00,Wunderground v.1.15,2013-08-27 01:17:00,
2013-08-26 20:22:00,86.3,71.7,29.91,SSW,204,7.0,7.0,62,0.00,,,0.00,Wunderground v.1.15,2013-08-27 01:22:00,
2013-08-26 20:28:00,86.2,71.6,29.91,SW,217,8.0,12.0,62,0.00,,,0.00,Wunderground v.1.15,2013-08-27 01:28:00,
2013-08-26 20:33:00,86.2,71.6,29.92,South,188,8.0,10.0,62,0.00,,,0.00,Wunderground v.1.15,2013-08-27 01:33:00,
2013-08-26 20:38:00,86.1,71.6,29.92,SW,225,7.0,10.0,62,0.00,,,0.00,Wunderground v.1.15,2013-08-27 01:38:00,
2013-08-26 20:44:00,85.9,71.0,29.91,SW,221,9.0,13.0,62,0.00,,,0.00,weatherlink.com 1.10,2013-08-27 01:44:00,
2013-08-26 20:49:00,85.8,71.3,29.91,SW,217,8.0,13.0,62,0.00,,,0.00,Wunderground v.1.15,2013-08-27 01:49:00,
2013-08-26 20:55:00,85.7,71.2,29.92,SW,234,8.0,14.0,62,0.00,,,0.00,Wunderground v.1.15,2013-08-27 01:55:00,
2013-08-26 21:00:00,85.5,71.0,29.91,SW,214,8.0,8.0,62,0.00,,,0.00,Wunderground v.1.15,2013-08-27 02:00:00,
2013-08-26 21:06:00,85.4,71.4,29.92,SSW,212,8.0,11.0,63,0.00,,,0.00,Wunderground v.1.15,2013-08-27 02:06:00,
2013-08-26 21:11:00,85.2,71.2,29.91,South,182,8.0,8.0,63,0.00,,,0.00,Wunderground v.1.15,2013-08-27 02:11:00,
2013-08-26 21:17:00,84.9,70.9,29.91,SSW,212,7.0,10.0,63,0.00,,,0.00,Wunderground v.1.15,2013-08-27 02:17:00,
2013-08-26 21:23:00,84.8,70.8,29.91,SW,227,8.0,9.0,63,0.00,,,0.00,Wunderground v.1.15,2013-08-27 02:23:00,
2013-08-26 21:28:00,84.7,71.0,29.91,SW,231,5.0,16.0,63,0.00,,,0.00,weatherlink.com 1.10,2013-08-27 02:28:00,
2013-08-26 21:33:00,84.5,70.5,29.91,WSW,246,7.0,15.0,63,0.00,,,0.00,Wunderground v.1.15,2013-08-27 02:33:00,
2013-08-26 21:38:00,84.3,70.8,29.91,SW,217,8.0,15.0,64,0.00,,,0.00,Wunderground v.1.15,2013-08-27 02:38:00,
2013-08-26 21:44:00,84.2,71.0,29.91,SSW,211,8.0,15.0,64,0.00,,,0.00,weatherlink.com 1.10,2013-08-27 02:44:00,
2013-08-26 21:49:00,84.1,70.6,29.91,SW,225,8.0,15.0,64,0.00,,,0.00,Wunderground v.1.15,2013-08-27 02:49:00,
2013-08-26 21:55:00,84.1,70.6,29.91,SW,235,8.0,15.0,64,0.00,,,0.00,Wunderground v.1.15,2013-08-27 02:55:00,
2013-08-26 22:00:00,84.0,70.5,29.91,SW,219,8.0,10.0,64,0.00,,,0.00,Wunderground v.1.15,2013-08-27 03:00:00,
2013-08-26 22:06:00,83.9,70.4,29.91,South,188,8.0,10.0,64,0.00,,,0.00,Wunderground v.1.15,2013-08-27 03:06:00,
2013-08-26 22:11:00,83.7,70.7,29.91,SW,215,8.0,9.0,65,0.00,,,0.00,Wunderground v.1.15,2013-08-27 03:11:00,
2013-08-26 22:17:00,83.6,70.6,29.91,South,191,8.0,10.0,65,0.00,,,0.00,Wunderground v.1.15,2013-08-27 03:17:00,
2013-08-26 22:22:00,83.5,70.5,29.91,SW,214,8.0,10.0,65,0.00,,,0.00,Wunderground v.1.15,2013-08-27 03:22:00,
2013-08-26 22:28:00,83.6,71.0,29.91,WSW,240,5.0,16.0,65,0.00,,,0.00,weatherlink.com 1.10,2013-08-27 03:28:00,
2013-08-26 22:33:00,83.5,70.5,29.91,SW,234,9.0,9.0,65,0.00,,,0.00,Wunderground v.1.15,2013-08-27 03:33:00,
2013-08-26 22:38:00,83.5,70.5,29.91,SW,216,9.0,10.0,65,0.00,,,0.00,Wunderground v.1.15,2013-08-27 03:38:00,
2013-08-26 22:43:00,83.5,70.5,29.91,SW,221,9.0,11.0,65,0.00,,,0.00,Wunderground v.1.15,2013-08-27 03:43:00,
2013-08-26 22:49:00,83.3,70.3,29.91,WSW,240,9.0,11.0,65,0.00,,,0.00,Wunderground v.1.15,2013-08-27 03:49:00,
2013-08-26 22:55:00,83.2,70.2,29.91,SW,232,8.0,9.0,65,0.00,,,0.00,Wunderground v.1.15,2013-08-27 03:55:00,
2013-08-26 23:00:00,83.1,70.1,29.91,WSW,246,8.0,9.0,65,0.00,,,0.00,Wunderground v.1.15,2013-08-27 04:00:00,
2013-08-26 23:01:00,83.1,70.1,29.91,WSW,250,8.0,12.0,65,0.00,,,0.00,Wunderground v.1.15,2013-08-27 04:01:00,
2013-08-26 23:02:00,83.1,70.1,29.91,SW,232,9.0,12.0,65,0.00,,,0.00,Wunderground v.1.15,2013-08-27 04:02:00,
2013-08-26 23:03:00,83.1,70.1,29.91,SW,219,9.0,12.0,65,0.00,,,0.00,Wunderground v.1.15,2013-08-27 04:03:00,
2013-08-26 23:06:00,83.1,70.1,29.91,SW,221,9.0,12.0,65,0.00,,,0.00,Wunderground v.1.15,2013-08-27 04:06:00,
2013-08-26 23:08:00,83.1,70.1,29.91,SW,228,9.0,12.0,65,0.00,,,0.00,Wunderground v.1.15,2013-08-27 04:08:00,
2013-08-26 23:13:00,83.1,70.0,29.91,SW,229,14.0,15.0,65,0.00,,,0.00,weatherlink.com 1.10,2013-08-27 04:13:00,
2013-08-26 23:18:00,83.0,70.0,29.91,SW,223,9.0,14.0,65,0.00,,,0.00,Wunderground v.1.15,2013-08-27 04:18:00,
2013-08-26 23:23:00,82.9,69.9,29.91,SW,225,8.0,9.0,65,0.00,,,0.00,Wunderground v.1.15,2013-08-27 04:23:00,
2013-08-26 23:29:00,82.7,70.2,29.91,SSW,211,8.0,13.0,66,0.00,,,0.00,Wunderground v.1.15,2013-08-27 04:29:00,
2013-08-26 23:34:00,82.4,69.9,29.92,SSW,213,8.0,16.0,66,0.00,,,0.00,Wunderground v.1.15,2013-08-27 04:34:00,
2013-08-26 23:40:00,82.2,69.7,29.92,SW,231,8.0,16.0,66,0.00,,,0.00,Wunderground v.1.15,2013-08-27 04:40:00,
2013-08-26 23:46:00,82.1,70.1,29.92,SW,230,8.0,16.0,67,0.00,,,0.00,Wunderground v.1.15,2013-08-27 04:46:00,
2013-08-26 23:52:00,81.9,69.9,29.92,SSW,200,8.0,16.0,67,0.00,,,0.00,Wunderground v.1.15,2013-08-27 04:52:00,
2013-08-26 23:57:00,81.8,69.8,29.92,SW,219,9.0,16.0,67,0.00,,,0.00,Wunderground v.1.15,2013-08-27 04:57:00,